RESURS O1 DEB, 23347

Orbit data source: Space-Track

RESURS O1 DEB, 23347 is space debris in SSO originally from a launch on Fri, 04 Nov 1994 UTC launched from the Tyuratam Missile And Space Complex (TTMTR). Debris objects in space refer to the collection of defunct objects orbiting the Earth. Examples of debris include non-operational satellites, rocket bodies, and fragments generated from explosions, collisions, or faulty payload assembly.

Loading next visibility...
Identifier
23347, 1994-074F
Orbit
SSO
Country
Flag of CISCIS
Related business
Manufacturer
Yuzhnoe
Mission
Spacecraft
Bus & Motor
SEP MOTOR COVER, Unknown motor
Mass
~0 kg wet, ~1 kg dry
Launch date (UTC)
1994-11-04 (31 years ago)
Launch vehicle
Unknown
Launch site
Tyuratam Missile And Space Complex (TTMTR)
Object type
Payload
Rocket body
Debris
Shape & HBR
Unknown shape, 0.2 m
Radar Cross Section
Small (<0.1 m²)

Expand to show TLE details & history
Last TLE update: 6 hours ago

TLE from 6 hours ago
0 RESURS O1 DEB
1 23347U 94074F   25286.98595771  .00002314  00000-0  47483-3 0  9996
2 23347  97.8484   1.5001 0122483 211.3179 326.5062 14.56952132634209
Epoch: 2025-10-13T23:39Z
TLE epoch observation values (Epoch: 2025-10-13T23:39:46.746Z)
Latitude
2.83109°
Longitude
164.1629°
Altitude
633.685 km
Speed
7.58 km/s
True Right ascension
12h 07m 33s
True Declination
2° 48' 50"
Sunlit
Object was in daylight at epoch
Visualization orbit readout
Latitude
Unknown
Longitude
Unknown
Altitude
Unknown
Speed
Unknown
Apparent Right ascension
Unknown
Apparent Declination
Unknown
Sunlit
N/A
Visualization observer readout
Local Sidereal Time
00:04:01
Azimuth
Unknown
Elevation
Unknown
Doppler factor
Unknown
Orbital elements
Apogee altitude
786.798 km
Perigee altitude
613.405 km
Semi-major axis
7,078.238 km
Eccentricity
0.01225
Inclination
97.8484°
RAAN
1.5001°
Arg. of periapsis
211.3179°
True anomaly
325.72167°
Mean anomaly
326.5062°
Eccentric anomaly
326.11494°
Mean motion
3.64465 °/min
Orbital period
98.78 mins
BSTAR
0.00047483
Loading maneuver chart data...
Computing Atmospheric mass density...

Documentation

Showing up to 5 results
|